[[{"header":{"parameterUnit":"m.s-1","parameterCategory":1,"la1":30.2991,"la2":30.254,"lo1":-89.0895,"lo2":-89.0444,"dy":0.0017,"dx":0.0017,"nx":28,"ny":28,"refTime":"2024-03-06T03:00:00:Z","depth":0,"parameterNumber":2,"parameterNumberName":"U-component_of_WINDS"},"data":[0,0,0,0,0,0,0,0,0,0,0,0,0,0,0,0,0,0,0,0,0,0,0,0,0,0,0,0,0,0,0,0,0,0,0,0,0,0,0,0,0,0,0,0,0,0,0,0,0,0,0,0,0,0,0,0,0,0,-0.086,-0.086,0,-0.0855,-0.0855,-0.0855,-0.0852,-0.0852,-0.0852,-0.0852,-0.0849,-0.0849,-0.0849,0,0,0,0,0,0,0,0,0,0,0,0,0,-0.0867,-0.0867,-0.086,-0.086,-0.086,-0.0856,-0.0855,-0.0855,-0.0852,-0.0852,-0.0852,-0.0852,-0.0849,-0.0849,-0.0849,0,0,0,0,0,0,0,0,0,0,0,0,0,-0.0864,-0.0867,-0.086,-0.0858,-0.0858,-0.0856,-0.0855,-0.0855,-0.0852,-0.0852,-0.0852,-0.0852,-0.0849,-0.0849,-0.0849,-0.0849,0,0,-0.0848,-0.0848,0,0,0,0,0,0,0,0,-0.0864,-0.0863,-0.0858,-0.0858,-0.0858,-0.0854,-0.0857,-0.0853,-0.0852,-0.0854,-0.0852,-0.0852,-0.0851,-0.085,-0.085,-0.0849,-0.0849,-0.0848,-0.0848,-0.0848,-0.0848,0,0,0,0,0,0,0,-0.0864,-0.0864,-0.0858,-0.0858,-0.0858,-0.0857,-0.0857,-0.0856,-0.0853,-0.0854,-0.0854,-0.0853,-0.0851,-0.085,-0.085,-0.0848,-0.0848,-0.0848,-0.0848,-0.0848,-0.0847,-0.0847,0,0,0,0,0,0,-0.0865,-0.0864,-0.0859,-0.0858,-0.0861,-0.0857,-0.0857,-0.0856,-0.0853,-0.0852,-0.0853,-0.0853,-0.085,-0.085,-0.085,-0.0849,-0.0848,-0.0848,-0.0848,-0.0847,-0.0847,-0.0847,0,0,0,0,0,0,-0.0865,-0.0864,-0.0859,-0.0861,-0.086,-0.0857,-0.0856,-0.0855,-0.0855,-0.0852,-0.0852,-0.0853,-0.085,-0.085,-0.0849,-0.0849,-0.0848,-0.0848,-0.0847,-0.0847,-0.0847,-0.0849,0,0,0,0,0,0,-0.0865,-0.0864,-0.0864,-0.0861,-0.086,-0.0858,-0.0856,-0.0855,-0.0854,-0.0854,-0.0852,-0.0852,-0.085,-0.0849,-0.0849,-0.0849,-0.0848,-0.0847,-0.0847,-0.0847,-0.0849,-0.0849,-0.0849,0,0,0,0,0,-0.0865,-0.0865,-0.0864,-0.0863,-0.086,-0.0858,-0.0857,-0.0855,-0.0854,-0.0854,-0.0853,-0.0852,-0.0849,-0.0849,-0.0849,-0.0849,-0.0847,-0.0847,-0.0847,-0.0849,-0.0849,-0.0849,0,0,0,0,0,0,-0.0869,-0.0865,-0.0863,-0.0862,-0.086,-0.0857,-0.0857,-0.0856,-0.0854,-0.0854,-0.0852,-0.0851,-0.0851,-0.085,-0.085,-0.0849,-0.0848,-0.0848,-0.0849,-0.085,-0.085,-0.085,-0.0848,0,0,0,0,0,-0.087,-0.0868,-0.0865,-0.0864,-0.0863,-0.086,-0.0859,-0.0858,-0.0856,-0.0855,-0.0853,-0.0852,-0.0851,-0.085,-0.0849,-0.0849,-0.0848,-0.0849,-0.0849,-0.0849,-0.0849,-0.0848,-0.0849,-0.0847,-0.0847,-0.0847,0,0,-0.0872,-0.0869,-0.0868,-0.0865,-0.0863,-0.0862,-0.086,-0.0859,-0.0857,-0.0855,-0.0854,-0.0853,-0.0851,-0.085,-0.085,-0.0849,-0.0849,-0.0849,-0.0849,-0.0849,-0.0848,-0.0849,-0.0849,-0.0847,-0.0847,-0.0847,0,0,-0.0874,-0.0872,-0.0871,-0.0869,-0.0866,-0.0864,-0.0864,-0.086,-0.0859,-0.0858,-0.0856,-0.0855,-0.0853,-0.0852,-0.0851,-0.0851,-0.085,-0.0851,-0.0852,-0.0852,-0.0852,-0.0852,-0.0852,-0.0852,-0.0851,-0.0851,-0.0851,0,-0.0876,-0.0874,-0.0871,-0.0869,-0.0868,-0.0865,-0.0864,-0.0862,-0.0859,-0.0859,-0.0858,-0.0855,-0.0854,-0.0852,-0.0852,-0.0852,-0.0852,-0.0851,-0.0852,-0.0852,-0.0852,-0.0852,-0.0852,-0.0851,-0.0851,-0.0851,-0.0851,0,-0.0877,-0.0875,-0.0875,-0.0871,-0.087,-0.0869,-0.0865,-0.0864,-0.0863,-0.0861,-0.0859,-0.0857,-0.0856,-0.0855,-0.0854,-0.0854,-0.0853,-0.0852,-0.0851,-0.0852,-0.0852,-0.0852,-0.0851,-0.0851,-0.0851,-0.0851,0,0,-0.0882,-0.0876,-0.0876,-0.0874,-0.087,-0.0869,-0.0868,-0.0865,-0.0864,-0.0862,-0.0861,-0.0859,-0.0858,-0.0857,-0.0855,-0.0855,-0.0855,-0.0854,-0.0854,-0.0854,-0.0855,-0.0855,-0.0856,-0.0854,-0.0854,-0.0854,-0.0855,0,-0.0884,-0.0881,-0.0877,-0.0876,-0.0874,-0.0871,-0.0869,-0.0867,-0.0865,-0.0864,-0.0862,-0.086,-0.0859,-0.0858,-0.0857,-0.0855,-0.0855,-0.0855,-0.0854,-0.0854,-0.0854,-0.0856,-0.0857,-0.0857,-0.0855,-0.0855,-0.0855,0,-0.0885,-0.0882,-0.088,-0.0876,-0.0875,-0.0874,-0.0871,-0.087,-0.0867,-0.0866,-0.0864,-0.0862,-0.0861,-0.086,-0.0858,-0.0858,-0.0857,-0.0856,-0.0855,-0.0855,-0.0854,-0.0856,-0.0857,-0.0857,-0.0855,-0.0855,-0.0855,0,-0.0889,-0.0885,-0.0883,-0.0881,-0.0876,-0.0876,-0.0874,-0.0871,-0.0869,-0.0867,-0.0866,-0.0864,-0.0863,-0.0861,-0.0859,-0.0858,-0.0857,-0.0856,-0.0856,-0.0856,-0.0856,-0.0856,-0.0857,-0.0855,-0.0855,-0.0855,-0.0855,0,-0.0891,-0.089,-0.0884,-0.0883,-0.0882,-0.0878,-0.0877,-0.0874,-0.0872,-0.087,-0.0867,-0.0866,-0.0863,-0.0861,-0.0859,-0.0858,-0.0858,-0.0856,-0.0856,-0.0857,-0.0857,-0.0856,-0.0856,-0.0855,-0.0855,-0.0855,-0.0855,0,-0.0896,-0.0892,-0.0889,-0.0884,-0.0883,-0.0882,-0.0878,-0.0877,-0.0874,-0.0872,-0.0872,-0.0868,-0.0866,-0.0863,-0.0861,-0.0859,-0.0858,-0.0857,-0.0859,-0.0858,-0.0859,-0.0859,-0.086,-0.086,-0.0858,-0.0858,-0.0858,0,-0.0897,-0.0896,-0.0891,-0.0889,-0.0887,-0.0885,-0.0883,-0.0879,-0.0877,-0.0874,-0.0873,-0.087,-0.0868,-0.0865,-0.0862,-0.086,-0.0859,-0.086,-0.0859,-0.0859,-0.0859,-0.0859,-0.0859,-0.086,-0.086,-0.086,-0.086,0,-0.0901,-0.0898,-0.0896,-0.0892,-0.089,-0.0887,-0.0884,-0.0883,-0.0879,-0.0877,-0.0874,-0.0872,-0.0869,-0.0867,-0.0864,-0.0862,-0.086,-0.086,-0.086,-0.0861,-0.0862,-0.0861,-0.0859,-0.086,-0.086,-0.086,-0.086,-0.086,-0.0904,-0.0902,-0.0898,-0.0895,-0.0892,-0.0889,-0.0887,-0.0884,-0.0882,-0.0878,-0.0876,-0.0874,-0.0871,-0.0867,-0.0865,-0.0863,-0.0862,-0.0862,-0.0862,-0.0862,-0.0862,-0.0862,-0.0863,-0.0863,-0.0863,-0.0863,-0.0862,0,-0.0907,-0.0904,-0.0901,-0.0896,-0.0894,-0.0891,-0.0888,-0.0886,-0.0883,-0.088,-0.0878,-0.0875,-0.0872,-0.0869,-0.0866,-0.0865,-0.0864,-0.0865,-0.0865,-0.0864,-0.0863,-0.0863,-0.0865,-0.0865,-0.0865,-0.0865,-0.0865,-0.0865,-0.0908,-0.0905,-0.0903,-0.0898,-0.0895,-0.0892,-0.089,-0.0888,-0.0885,-0.0881,-0.0879,-0.0877,-0.0873,-0.087,-0.0868,-0.0867,-0.0866,-0.0867,-0.0866,-0.0865,-0.0864,-0.0864,-0.0864,-0.0867,-0.0867,-0.0867,-0.0867,-0.0867]},{"header":{"parameterUnit":"m.s-1","parameterCategory":1,"la1":30.2991,"la2":30.254,"lo1":-89.0895,"lo2":-89.0444,"dy":0.0017,"dx":0.0017,"nx":28,"ny":28,"refTime":"2024-03-06T03:00:00:Z","depth":0,"parameterNumber":3,"parameterNumberName":"V-component_of_WINDS"},"data":[0,0,0,0,0,0,0,0,0,0,0,0,0,0,0,0,0,0,0,0,0,0,0,0,0,0,0,0,0,0,0,0,0,0,0,0,0,0,0,0,0,0,0,0,0,0,0,0,0,0,0,0,0,0,0,0,0,0,-2.5382,-2.5383,0,-2.5452,-2.5452,-2.5453,-2.5461,-2.546,-2.5459,-2.5459,-2.5528,-2.553,-2.5533,0,0,0,0,0,0,0,0,0,0,0,0,0,-2.5255,-2.5257,-2.5382,-2.5383,-2.5384,-2.5452,-2.5452,-2.5453,-2.5461,-2.546,-2.5459,-2.5458,-2.5527,-2.553,-2.5533,0,0,0,0,0,0,0,0,0,0,0,0,0,-2.5316,-2.5258,-2.5382,-2.5396,-2.5398,-2.5451,-2.5453,-2.5454,-2.5461,-2.546,-2.5459,-2.5458,-2.5526,-2.553,-2.5533,-2.5577,0,0,-2.5545,-2.5546,0,0,0,0,0,0,0,0,-2.5312,-2.5321,-2.5393,-2.5395,-2.5397,-2.5446,-2.5433,-2.5495,-2.5461,-2.5437,-2.5459,-2.5457,-2.5501,-2.5507,-2.5522,-2.5581,-2.5584,-2.5545,-2.5547,-2.5549,-2.555,0,0,0,0,0,0,0,-2.5308,-2.5318,-2.541,-2.5394,-2.5397,-2.5398,-2.5406,-2.5445,-2.5474,-2.5439,-2.544,-2.5448,-2.5502,-2.5519,-2.5524,-2.5585,-2.5545,-2.5548,-2.5551,-2.5552,-2.5684,-2.5685,0,0,0,0,0,0,-2.5302,-2.5314,-2.5407,-2.5412,-2.5351,-2.5401,-2.541,-2.5432,-2.5474,-2.5479,-2.5449,-2.5448,-2.5513,-2.552,-2.5527,-2.5582,-2.5549,-2.5552,-2.5555,-2.5682,-2.5684,-2.5685,0,0,0,0,0,0,-2.5299,-2.531,-2.5405,-2.5363,-2.5375,-2.5405,-2.5429,-2.5434,-2.545,-2.5481,-2.5486,-2.546,-2.5512,-2.5521,-2.5565,-2.5584,-2.5554,-2.5558,-2.5681,-2.5683,-2.5685,-2.5692,0,0,0,0,0,0,-2.5295,-2.5309,-2.5326,-2.5363,-2.5378,-2.5442,-2.543,-2.5436,-2.5457,-2.5456,-2.5493,-2.5498,-2.5512,-2.556,-2.5569,-2.5589,-2.556,-2.5679,-2.5682,-2.5684,-2.569,-2.5694,-2.5697,0,0,0,0,0,-2.5291,-2.5325,-2.5327,-2.5338,-2.54,-2.5443,-2.5451,-2.5467,-2.5458,-2.5476,-2.5496,-2.5497,-2.5581,-2.5564,-2.5575,-2.5596,-2.5678,-2.5681,-2.5684,-2.5688,-2.5693,-2.5697,0,0,0,0,0,0,-2.5288,-2.533,-2.5333,-2.538,-2.5408,-2.5445,-2.5467,-2.5471,-2.5502,-2.55,-2.5518,-2.5527,-2.557,-2.5587,-2.5568,-2.5641,-2.5628,-2.5634,-2.5628,-2.5633,-2.5636,-2.5631,-2.5564,0,0,0,0,0,-2.5293,-2.5325,-2.536,-2.5398,-2.5412,-2.5437,-2.5457,-2.5467,-2.5496,-2.5508,-2.5532,-2.556,-2.5593,-2.5614,-2.5645,-2.5693,-2.5701,-2.5712,-2.5716,-2.5719,-2.5723,-2.575,-2.5755,-2.5695,-2.5695,-2.5694,0,0,-2.5303,-2.533,-2.5349,-2.5398,-2.5421,-2.5454,-2.5447,-2.5482,-2.5507,-2.5513,-2.5556,-2.5575,-2.5607,-2.5653,-2.5675,-2.5669,-2.5741,-2.5722,-2.5724,-2.5727,-2.5753,-2.5759,-2.5764,-2.5696,-2.5696,-2.5696,0,0,-2.5339,-2.5362,-2.5397,-2.5421,-2.5456,-2.5473,-2.5481,-2.5518,-2.553,-2.5574,-2.558,-2.5609,-2.5665,-2.5688,-2.5708,-2.5754,-2.5756,-2.5764,-2.5781,-2.5807,-2.5812,-2.5816,-2.5833,-2.5839,-2.5768,-2.5768,-2.5768,0,-2.5347,-2.5397,-2.5414,-2.545,-2.5471,-2.548,-2.5515,-2.5537,-2.5581,-2.5596,-2.5589,-2.566,-2.5683,-2.5734,-2.5746,-2.5761,-2.5771,-2.5759,-2.581,-2.5815,-2.5819,-2.5835,-2.5841,-2.5768,-2.5768,-2.5768,-2.5768,0,-2.5406,-2.5441,-2.5464,-2.5508,-2.5532,-2.5567,-2.5589,-2.5612,-2.562,-2.5637,-2.5682,-2.571,-2.5748,-2.5761,-2.5769,-2.5814,-2.581,-2.5807,-2.5794,-2.5825,-2.5841,-2.5847,-2.5769,-2.5769,-2.5769,-2.5769,0,0,-2.544,-2.5494,-2.5502,-2.5522,-2.5563,-2.559,-2.5625,-2.5663,-2.5683,-2.5713,-2.5743,-2.5791,-2.5788,-2.581,-2.5821,-2.5844,-2.5879,-2.5838,-2.5839,-2.5845,-2.5932,-2.5934,-2.5941,-2.5881,-2.5883,-2.5884,-2.5929,0,-2.5481,-2.5545,-2.5563,-2.5617,-2.565,-2.5659,-2.5691,-2.5719,-2.5736,-2.5766,-2.5785,-2.5819,-2.5813,-2.5826,-2.5849,-2.587,-2.5897,-2.5867,-2.591,-2.5911,-2.5901,-2.5949,-2.5952,-2.5993,-2.5935,-2.5936,-2.5937,0,-2.5536,-2.5569,-2.5627,-2.5664,-2.5679,-2.5706,-2.5743,-2.5772,-2.5804,-2.5815,-2.584,-2.5849,-2.5887,-2.5873,-2.5925,-2.5904,-2.5923,-2.5936,-2.5938,-2.5942,-2.5926,-2.5955,-2.6007,-2.6013,-2.5947,-2.5946,-2.5945,0,-2.5556,-2.5614,-2.5657,-2.5674,-2.5718,-2.5738,-2.5757,-2.5788,-2.581,-2.5842,-2.5857,-2.5893,-2.5912,-2.5939,-2.5958,-2.5946,-2.6009,-2.5996,-2.6019,-2.6019,-2.6031,-2.603,-2.6087,-2.6043,-2.6043,-2.6043,-2.6043,0,-2.56,-2.5635,-2.5667,-2.5693,-2.5733,-2.5753,-2.5792,-2.5811,-2.5839,-2.5869,-2.5879,-2.5907,-2.593,-2.5961,-2.5975,-2.6017,-2.6025,-2.6035,-2.6039,-2.6034,-2.6033,-2.6047,-2.6044,-2.6045,-2.6044,-2.6044,-2.6044,0,-2.5628,-2.5651,-2.5698,-2.5737,-2.5748,-2.5775,-2.5808,-2.5834,-2.5852,-2.589,-2.59,-2.5929,-2.5966,-2.5987,-2.6034,-2.6043,-2.609,-2.6092,-2.6079,-2.6081,-2.6102,-2.61,-2.617,-2.618,-2.6129,-2.613,-2.613,0,-2.5654,-2.5682,-2.5724,-2.5746,-2.5765,-2.5799,-2.5822,-2.5843,-2.5866,-2.5906,-2.5927,-2.5965,-2.5997,-2.6056,-2.608,-2.6116,-2.6119,-2.6141,-2.6124,-2.6119,-2.612,-2.6118,-2.6121,-2.6144,-2.6144,-2.6144,-2.6145,0,-2.5699,-2.5709,-2.5742,-2.578,-2.5807,-2.5837,-2.5867,-2.5884,-2.591,-2.5935,-2.5974,-2.5999,-2.6047,-2.6085,-2.6123,-2.6142,-2.6148,-2.615,-2.6157,-2.6153,-2.6145,-2.615,-2.6087,-2.6148,-2.6148,-2.6147,-2.6147,-2.6147,-2.5727,-2.5752,-2.5786,-2.5823,-2.5848,-2.5876,-2.5903,-2.5925,-2.5958,-2.5999,-2.6009,-2.605,-2.6083,-2.6135,-2.6155,-2.6187,-2.6183,-2.6194,-2.6196,-2.6199,-2.62,-2.614,-2.6194,-2.6194,-2.6194,-2.6194,-2.6194,0,-2.5772,-2.5794,-2.5828,-2.5871,-2.59,-2.5903,-2.5937,-2.5961,-2.5997,-2.6027,-2.6059,-2.6103,-2.614,-2.6169,-2.6206,-2.6227,-2.623,-2.6236,-2.6235,-2.6239,-2.6201,-2.6191,-2.6233,-2.6233,-2.6233,-2.6233,-2.6233,-2.6233,-2.5798,-2.5842,-2.5856,-2.5912,-2.5935,-2.5976,-2.5995,-2.6021,-2.6045,-2.6095,-2.6126,-2.6145,-2.6174,-2.6214,-2.6249,-2.6256,-2.6269,-2.6275,-2.6282,-2.6246,-2.6242,-2.6238,-2.6229,-2.6277,-2.6278,-2.6318,-2.6319,-2.6319]}]]